Time,TemperatureF,DewpointF,PressureIn,WindDirection,WindDirectionDegrees,WindSpeedMPH,WindSpeedGustMPH,Humidity,HourlyPrecipIn,Conditions,Clouds,dailyrainin,SoftwareType,DateUTC
2013-01-29 00:08:00,51.1,50.6,30.08,NE,45,2.7,-999.0,98,-99.99,,,0.00,Acu-Link.com,2013-01-29 05:08:00,
2013-01-29 00:24:00,50.9,50.4,30.07,NNW,337,0.0,-999.0,98,-99.99,,,0.00,Acu-Link.com,2013-01-29 05:24:00,
2013-01-29 00:39:00,50.9,50.4,30.08,WNW,292,2.2,-999.0,98,-99.99,,,0.00,Acu-Link.com,2013-01-29 05:39:00,
2013-01-29 00:54:00,50.9,50.4,30.07,SSE,157,2.2,-999.0,98,-99.99,,,0.00,Acu-Link.com,2013-01-29 05:54:00,
2013-01-29 01:09:00,50.5,50.0,30.07,WSW,247,2.7,-999.0,98,-99.99,,,0.00,Acu-Link.com,2013-01-29 06:09:00,
2013-01-29 01:24:00,49.8,49.3,30.07,SSW,202,2.7,-999.0,98,-99.99,,,0.00,Acu-Link.com,2013-01-29 06:24:00,
2013-01-29 01:39:00,49.3,48.8,30.06,SSW,202,0.0,-999.0,98,-99.99,,,0.00,Acu-Link.com,2013-01-29 06:39:00,
2013-01-29 01:54:00,49.1,48.6,30.06,West,270,1.1,-999.0,98,-99.99,,,0.00,Acu-Link.com,2013-01-29 06:54:00,
2013-01-29 02:09:00,48.7,48.2,30.06,ESE,112,1.1,-999.0,98,-99.99,,,0.00,Acu-Link.com,2013-01-29 07:09:00,
2013-01-29 02:24:00,48.7,48.2,30.06,South,180,2.2,-999.0,98,-99.99,,,0.00,Acu-Link.com,2013-01-29 07:24:00,
2013-01-29 02:40:00,48.4,47.9,30.05,SSW,202,3.2,-999.0,98,-99.99,,,0.00,Acu-Link.com,2013-01-29 07:40:00,
2013-01-29 02:55:00,48.2,47.7,30.06,West,270,1.1,-999.0,98,-99.99,,,0.00,Acu-Link.com,2013-01-29 07:55:00,
2013-01-29 03:10:00,48.0,47.5,30.06,WNW,292,2.2,-999.0,98,-99.99,,,0.00,Acu-Link.com,2013-01-29 08:10:00,
2013-01-29 03:25:00,47.8,47.3,30.06,NNW,337,2.7,-999.0,98,-99.99,,,0.00,Acu-Link.com,2013-01-29 08:25:00,
2013-01-29 03:40:00,47.7,47.2,30.05,SSE,157,1.7,-999.0,98,-99.99,,,0.00,Acu-Link.com,2013-01-29 08:40:00,
2013-01-29 03:55:00,47.5,47.0,30.05,NE,45,2.7,-999.0,98,-99.99,,,0.00,Acu-Link.com,2013-01-29 08:55:00,
2013-01-29 04:15:00,47.5,47.0,30.05,SE,135,2.2,-999.0,98,-99.99,,,0.00,Acu-Link.com,2013-01-29 09:15:00,
2013-01-29 04:30:00,47.5,47.0,30.05,ESE,112,1.7,-999.0,98,-99.99,,,0.00,Acu-Link.com,2013-01-29 09:30:00,
2013-01-29 04:45:00,47.5,47.0,30.04,ESE,112,1.7,-999.0,98,-99.99,,,0.00,Acu-Link.com,2013-01-29 09:45:00,
2013-01-29 05:01:00,47.3,46.8,30.04,ESE,112,2.2,-999.0,98,-99.99,,,0.00,Acu-Link.com,2013-01-29 10:01:00,
2013-01-29 05:16:00,47.1,46.6,30.04,NNW,337,1.7,-999.0,98,-99.99,,,0.00,Acu-Link.com,2013-01-29 10:16:00,
2013-01-29 05:31:00,47.1,46.6,30.05,North,0,1.7,-999.0,98,-99.99,,,0.00,Acu-Link.com,2013-01-29 10:31:00,
2013-01-29 05:46:00,47.1,46.6,30.05,NNW,337,1.1,-999.0,98,-99.99,,,0.00,Acu-Link.com,2013-01-29 10:46:00,
2013-01-29 06:01:00,47.1,46.6,30.05,NNE,22,1.7,-999.0,98,-99.99,,,0.00,Acu-Link.com,2013-01-29 11:01:00,
2013-01-29 06:16:00,47.3,46.8,30.05,NNW,337,3.2,-999.0,98,-99.99,,,0.00,Acu-Link.com,2013-01-29 11:16:00,
2013-01-29 06:31:00,47.1,46.6,30.05,WSW,247,1.7,-999.0,98,-99.99,,,0.00,Acu-Link.com,2013-01-29 11:31:00,
2013-01-29 06:47:00,47.1,46.6,30.05,North,0,1.1,-999.0,98,-99.99,,,0.00,Acu-Link.com,2013-01-29 11:47:00,
2013-01-29 07:02:00,47.3,46.8,30.04,NW,315,3.7,-999.0,98,-99.99,,,0.00,Acu-Link.com,2013-01-29 12:02:00,
2013-01-29 07:17:00,47.1,46.6,30.05,SSW,202,2.7,-999.0,98,-99.99,,,0.00,Acu-Link.com,2013-01-29 12:17:00,
2013-01-29 07:32:00,47.1,46.6,30.05,South,180,1.1,-999.0,98,-99.99,,,0.00,Acu-Link.com,2013-01-29 12:32:00,
2013-01-29 07:47:00,47.3,46.8,30.06,South,180,1.7,-999.0,98,-99.99,,,0.00,Acu-Link.com,2013-01-29 12:47:00,
2013-01-29 08:02:00,47.8,47.3,30.06,NW,315,1.7,-999.0,98,-99.99,,,0.00,Acu-Link.com,2013-01-29 13:02:00,
2013-01-29 08:17:00,48.2,47.7,30.06,WSW,247,1.7,-999.0,98,-99.99,,,0.00,Acu-Link.com,2013-01-29 13:17:00,
2013-01-29 08:32:00,48.9,48.4,30.07,South,180,2.7,-999.0,98,-99.99,,,0.00,Acu-Link.com,2013-01-29 13:32:00,
2013-01-29 08:47:00,49.8,49.3,30.06,West,270,1.1,-999.0,98,-99.99,,,0.00,Acu-Link.com,2013-01-29 13:47:00,
2013-01-29 09:02:00,51.3,50.8,30.07,NW,315,2.2,-999.0,98,-99.99,,,0.00,Acu-Link.com,2013-01-29 14:02:00,
2013-01-29 09:18:00,52.5,52.0,30.06,North,0,1.7,-999.0,98,-99.99,,,0.00,Acu-Link.com,2013-01-29 14:18:00,
2013-01-29 09:33:00,54.3,53.7,30.05,WSW,247,2.2,-999.0,98,-99.99,,,0.00,Acu-Link.com,2013-01-29 14:33:00,
2013-01-29 09:48:00,56.3,55.7,30.05,NNE,22,1.7,-999.0,98,-99.99,,,0.00,Acu-Link.com,2013-01-29 14:48:00,
2013-01-29 10:03:00,57.9,57.3,30.06,ESE,112,2.7,-999.0,98,-99.99,,,0.00,Acu-Link.com,2013-01-29 15:03:00,
2013-01-29 10:18:00,59.4,58.8,30.06,North,0,3.2,-999.0,98,-99.99,,,0.00,Acu-Link.com,2013-01-29 15:18:00,
2013-01-29 10:33:00,60.6,60.0,30.06,ESE,112,2.7,-999.0,98,-99.99,,,0.00,Acu-Link.com,2013-01-29 15:33:00,
2013-01-29 10:48:00,61.7,61.1,30.06,NW,315,1.7,-999.0,98,-99.99,,,0.00,Acu-Link.com,2013-01-29 15:48:00,
2013-01-29 11:03:00,62.6,62.0,30.06,NNE,22,4.7,-999.0,98,-99.99,,,0.00,Acu-Link.com,2013-01-29 16:03:00,
2013-01-29 11:18:00,63.5,62.9,30.05,WNW,292,4.2,-999.0,98,-99.99,,,0.00,Acu-Link.com,2013-01-29 16:18:00,
2013-01-29 11:34:00,64.8,64.2,30.04,WNW,292,2.7,-999.0,98,-99.99,,,0.00,Acu-Link.com,2013-01-29 16:34:00,
2013-01-29 11:49:00,66.0,65.4,30.04,SSE,157,3.7,-999.0,98,-99.99,,,0.00,Acu-Link.com,2013-01-29 16:49:00,
2013-01-29 12:04:00,66.7,66.1,30.03,NW,315,2.7,-999.0,98,-99.99,,,0.00,Acu-Link.com,2013-01-29 17:04:00,
2013-01-29 12:19:00,67.8,67.2,30.01,NNW,337,3.2,-999.0,98,-99.99,,,0.00,Acu-Link.com,2013-01-29 17:19:00,
2013-01-29 12:34:00,69.8,68.3,30.00,SSW,202,3.7,-999.0,95,-99.99,,,0.00,Acu-Link.com,2013-01-29 17:34:00,
2013-01-29 12:49:00,70.0,67.9,29.99,SE,135,4.2,-999.0,93,-99.99,,,0.00,Acu-Link.com,2013-01-29 17:49:00,
2013-01-29 13:04:00,70.5,68.7,29.98,SSE,157,4.2,-999.0,94,-99.99,,,0.00,Acu-Link.com,2013-01-29 18:04:00,
2013-01-29 13:19:00,70.2,67.4,29.97,NW,315,2.2,-999.0,91,-99.99,,,0.00,Acu-Link.com,2013-01-29 18:19:00,
2013-01-29 13:34:00,70.5,67.7,29.97,NNW,337,1.7,-999.0,91,-99.99,,,0.00,Acu-Link.com,2013-01-29 18:34:00,
2013-01-29 13:50:00,72.0,68.2,29.96,NE,45,2.2,-999.0,88,-99.99,,,0.00,Acu-Link.com,2013-01-29 18:50:00,
2013-01-29 14:05:00,72.0,67.6,29.96,NNE,22,3.2,-999.0,86,-99.99,,,0.00,Acu-Link.com,2013-01-29 19:05:00,
2013-01-29 14:20:00,72.0,65.8,29.95,North,0,2.2,-999.0,81,-99.99,,,0.00,Acu-Link.com,2013-01-29 19:20:00,
2013-01-29 14:35:00,72.9,66.0,29.95,SE,135,3.2,-999.0,79,-99.99,,,0.00,Acu-Link.com,2013-01-29 19:35:00,
2013-01-29 14:50:00,72.9,65.6,29.95,East,90,2.7,-999.0,78,-99.99,,,0.00,Acu-Link.com,2013-01-29 19:50:00,
2013-01-29 15:05:00,72.9,65.3,29.95,WSW,247,1.7,-999.0,77,-99.99,,,0.00,Acu-Link.com,2013-01-29 20:05:00,
2013-01-29 15:20:00,73.2,66.3,29.94,SSW,202,3.7,-999.0,79,-99.99,,,0.00,Acu-Link.com,2013-01-29 20:20:00,
2013-01-29 15:35:00,73.2,64.8,29.95,WSW,247,7.8,-999.0,75,-99.99,,,0.00,Acu-Link.com,2013-01-29 20:35:00,
2013-01-29 15:50:00,72.7,65.4,29.95,NNE,22,2.2,-999.0,78,-99.99,,,0.00,Acu-Link.com,2013-01-29 20:50:00,
2013-01-29 16:06:00,72.3,65.4,29.95,SSW,202,1.7,-999.0,79,-99.99,,,0.00,Acu-Link.com,2013-01-29 21:06:00,
2013-01-29 16:21:00,72.0,65.8,29.94,ENE,67,4.2,-999.0,81,-99.99,,,0.00,Acu-Link.com,2013-01-29 21:21:00,
2013-01-29 16:36:00,71.4,66.0,29.94,NNE,22,1.7,-999.0,83,-99.99,,,0.00,Acu-Link.com,2013-01-29 21:36:00,
2013-01-29 16:51:00,70.3,65.6,29.94,SE,135,2.7,-999.0,85,-99.99,,,0.00,Acu-Link.com,2013-01-29 21:51:00,
2013-01-29 17:06:00,69.3,66.2,29.94,SSE,157,1.7,-999.0,90,-99.99,,,0.00,Acu-Link.com,2013-01-29 22:06:00,
2013-01-29 17:21:00,68.0,66.5,29.94,NNW,337,0.0,-999.0,95,-99.99,,,0.00,Acu-Link.com,2013-01-29 22:21:00,
2013-01-29 17:36:00,66.4,65.8,29.93,ENE,67,1.1,-999.0,98,-99.99,,,0.00,Acu-Link.com,2013-01-29 22:36:00,
2013-01-29 17:51:00,64.6,64.0,29.92,SSW,202,0.0,-999.0,98,-99.99,,,0.00,Acu-Link.com,2013-01-29 22:51:00,
2013-01-29 18:06:00,62.8,62.2,29.93,SSW,202,0.0,-999.0,98,-99.99,,,0.00,Acu-Link.com,2013-01-29 23:06:00,
2013-01-29 18:22:00,61.7,61.1,29.93,SSW,202,0.0,-999.0,98,-99.99,,,0.00,Acu-Link.com,2013-01-29 23:22:00,
2013-01-29 18:37:00,60.4,59.8,29.92,WSW,247,0.0,-999.0,98,-99.99,,,0.00,Acu-Link.com,2013-01-29 23:37:00,
2013-01-29 18:52:00,59.7,59.1,29.92,SW,225,0.0,-999.0,98,-99.99,,,0.00,Acu-Link.com,2013-01-29 23:52:00,
2013-01-29 19:07:00,59.5,58.9,29.93,SSW,202,0.0,-999.0,98,-99.99,,,0.00,Acu-Link.com,2013-01-30 00:07:00,
2013-01-29 19:22:00,59.2,58.6,29.93,West,270,0.0,-999.0,98,-99.99,,,0.00,Acu-Link.com,2013-01-30 00:22:00,
2013-01-29 19:37:00,59.2,58.6,29.92,SE,135,0.0,-999.0,98,-99.99,,,0.00,Acu-Link.com,2013-01-30 00:37:00,
2013-01-29 19:52:00,59.0,58.4,29.92,NNE,22,0.0,-999.0,98,-99.99,,,0.00,Acu-Link.com,2013-01-30 00:52:00,
2013-01-29 20:07:00,59.9,59.3,29.92,SSE,157,0.0,-999.0,98,-99.99,,,0.00,Acu-Link.com,2013-01-30 01:07:00,
2013-01-29 20:22:00,61.0,60.4,29.92,South,180,2.2,-999.0,98,-99.99,,,0.00,Acu-Link.com,2013-01-30 01:22:00,
2013-01-29 20:37:00,61.5,60.9,29.92,NNE,22,2.2,-999.0,98,-99.99,,,0.00,Acu-Link.com,2013-01-30 01:37:00,
2013-01-29 20:53:00,61.3,60.7,29.93,NNW,337,0.0,-999.0,98,-99.99,,,0.00,Acu-Link.com,2013-01-30 01:53:00,
2013-01-29 21:08:00,61.5,60.9,29.92,WNW,292,2.2,-999.0,98,-99.99,,,0.00,Acu-Link.com,2013-01-30 02:08:00,
2013-01-29 21:23:00,61.7,61.1,29.92,West,270,0.0,-999.0,98,-99.99,,,0.00,Acu-Link.com,2013-01-30 02:23:00,
2013-01-29 21:38:00,61.2,60.6,29.92,ESE,112,1.1,-999.0,98,-99.99,,,0.00,Acu-Link.com,2013-01-30 02:38:00,
2013-01-29 21:53:00,60.6,60.0,29.91,SSW,202,1.7,-999.0,98,-99.99,,,0.00,Acu-Link.com,2013-01-30 02:53:00,
2013-01-29 22:08:00,60.8,60.2,29.91,ENE,67,0.0,-999.0,98,-99.99,,,0.00,Acu-Link.com,2013-01-30 03:08:00,
2013-01-29 22:23:00,60.8,60.2,29.92,West,270,1.1,-999.0,98,-99.99,,,0.00,Acu-Link.com,2013-01-30 03:23:00,
2013-01-29 22:38:00,60.6,60.0,29.92,SSE,157,1.7,-999.0,98,-99.99,,,0.00,Acu-Link.com,2013-01-30 03:38:00,
2013-01-29 22:53:00,60.6,60.0,29.93,West,270,1.7,-999.0,98,-99.99,,,0.00,Acu-Link.com,2013-01-30 03:53:00,
2013-01-29 23:09:00,60.8,60.2,29.94,West,270,0.0,-999.0,98,-99.99,,,0.00,Acu-Link.com,2013-01-30 04:09:00,
2013-01-29 23:24:00,59.7,59.1,29.92,ESE,112,0.0,-999.0,98,-99.99,,,0.00,Acu-Link.com,2013-01-30 04:24:00,
2013-01-29 23:39:00,59.2,58.6,29.91,SE,135,0.0,-999.0,98,-99.99,,,0.00,Acu-Link.com,2013-01-30 04:39:00,
2013-01-29 23:54:00,58.5,57.9,29.91,SE,135,0.0,-999.0,98,-99.99,,,0.00,Acu-Link.com,2013-01-30 04:54:00,